Regional Weather Roundup
Issued by NWS

Home | Current Version | Previous Version | Text Only | Print | Product List | Glossary Off
Versions: 1 2 3 4 5 6 7 8 9 10 11 12 13 14 15 16 17 18 19 20 21 22 23 24 25 26 27 28 29 30 31 32 33 34 35 36 37 38 39 40 41 42 43 44 45 46 47 48 49 50

918
ASUS43 KDMX 220801
RWRIA

WEATHER ROUNDUP FOR IOWA
NATIONAL WEATHER SERVICE DES MOINES IA
300 AM CDT SUN OCT 22 2017

NOTE: "FAIR" INDICATES FEW OR NO CLOUDS BELOW 12,000 FEET WITH NO
SIGNIFICANT WEATHER AND/OR OBSTRUCTIONS TO VISIBILITY.

* - THESE STATIONS ARE NOT NWS STATIONS...THUS NOT UNDER NWS
QUALITY CONTROL.  THEY ALSO DO NOT REPORT WEATHER SUCH
AS PRECIPITATION OR FOG.

IAZ001>003-012>014-020>022-031>034-043>046-220900-
   NORTHWEST IOWA

CITY           SKY/WX    TMP DP  RH WIND       PRES   REMARKS
DENISON *      CLOUDY    46  43  87 CALM      30.00R
LE MARS *      CLOUDY    45  39  81 CALM      29.97S
ORANGE CITY *  PTCLDY    43  39  87 W3        29.96S
SHELDON *      PTCLDY    39  37  93 SW3       29.94F
SIOUX CITY     PTCLDY    42  39  89 W5        29.98F
SPENCER        CLOUDY    42  40  92 W3        29.96S
STORM LAKE *   CLOUDY    45  41  87 W7        29.97S
$$

IAZ055>058-069>071-079>083-090>094-220900-
   SOUTHWEST IOWA

CITY           SKY/WX    TMP DP  RH WIND       PRES   REMARKS
ATLANTIC *     CLOUDY    50  43  76 CALM      29.98S
AUDUBON *      CLOUDY    48  43  81 CALM      29.98R
CLARINDA *       N/A     50  45  81 VRB6      30.00F
COUNCIL BLFS * CLOUDY    48  45  87 W7        30.00R
CRESTON *      CLOUDY    50  46  87 NW5       29.99R
HARLAN  *      CLOUDY    48  43  81 CALM      30.02R
LAMONI         LGT RAIN  50  47  89 N9        29.96F
RED OAK *      CLOUDY    50  45  81 NE5       29.99S
SHENANDOAH *   MOCLDY    50  43  76 CALM      30.00R
$$

IAZ047>049-059>061-072>074-084-220900-
   CENTRAL IOWA

CITY           SKY/WX    TMP DP  RH WIND       PRES   REMARKS
AMES           CLOUDY    51  46  83 NW6       29.95S
ANKENY *       CLOUDY    52  45  76 NW5       29.97R
BOONE *        CLOUDY    50  43  76 NW9       29.95S
CHARITON *     LGT RAIN  50  46  87 N7        29.96S
DES MOINES     LGT RAIN  51  47  86 NW5       29.96R
GRINNELL*      RAIN      50  47  90 NW10      29.95S
KNOXVILLE *    CLOUDY    50  48  93 NW8       29.95R
MARSHALLTOWN   CLOUDY    51  49  92 NW7       29.93F
NEWTON *       CLOUDY    50  48  93 NW8       29.95F
PELLA *        LGT RAIN  51  48  90 NW8       29.96S
$$

IAZ004>006-015-016-023>025-035-036-220900-
   NORTH CENTRAL IOWA

CITY           SKY/WX    TMP DP  RH WIND       PRES   REMARKS
ALGONA *       CLOUDY    48  45  87 W7        29.94F
CLARION *      CLOUDY    48  46  93 NW6       29.94F
ESTHERVILLE    CLOUDY    45  41  86 W6        29.94S
FORT DODGE *   CLOUDY    49  43  80 NW5       29.96R
MASON CITY     CLOUDY    49  43  80 W9        29.95R
FOREST CITY *    N/A     48  43  81 W5        29.94R
WEBSTER CITY * CLOUDY    50  45  81 NW5       29.93S
IOWA FALLS *   CLOUDY    51  46  83 NW5       29.95S
$$

IAZ007>011-017>019-026>030-037>042-050>054-066-220900-
   NORTHEAST IOWA

CITY           SKY/WX    TMP DP  RH WIND       PRES   REMARKS
CEDAR RAPIDS   LGT RAIN  54  53  97 NW12      29.92R
CHARLES CITY * CLOUDY    50  48  93 NW5       29.94R
CLINTON *      RAIN      64  59  83 W10       29.88S
DECORAH *      LGT RAIN  52  48  87 NW8       29.91R
DUBUQUE        LGT RAIN  61  59  93 S6        29.89R
MONTICELLO *   LGT RAIN  57  54  88 NW13      29.89R
OELWEIN *      LGT RAIN  52  50  93 NW13      29.93R
WATERLOO       LGT RAIN  50  48  93 NW6       29.94R
$$

IAZ064-065-067-068-078-220900-
   EAST CENTRAL IOWA

CITY           SKY/WX    TMP DP  RH WIND       PRES   REMARKS
DAVENPORT      LGT RAIN  62  59  90 NW6       29.90S
IOWA CITY      LGT RAIN  57  54  89 N8        29.92R
MUSCATINE *    CLOUDY    61  59  94 VRB5      29.87F
QUAD CITIES    CLOUDY    65  61  87 W8        29.87R
$$

IAZ062-063-075>077-085>089-095>099-220900-
   SOUTHEAST IOWA

CITY           SKY/WX    TMP DP  RH WIND       PRES   REMARKS
BURLINGTON     RAIN      61  61 100 NW9       29.87S FOG
FAIRFIELD *    CLOUDY    54  52  94 NW12G18   29.91R FOG
FORT MADISON * LGT RAIN  61  61 100 NW9       29.88F
KEOKUK *       RAIN      61  61 100 VRB6      29.88S
OSKALOOSA *    RAIN      51  49  92 NW13      29.96R
OTTUMWA        RAIN      52  49  89 NW16      29.95R
WASHINGTON *   LGT RAIN  55  54  94 NW14      29.91F
$$

ABBREVIATIONS USED IN REMARKS
   TC - TEMPERATURES IN CELSIUS
  WCI - WIND CHILL INDEX
   HX - HEAT INDEX
  VSB - VISIBILITY
$$





USA.gov is the U.S. government's official web portal to all federal, state and local government web resources and services.